[[{"header":{"parameterUnit":"m.s-1","parameterCategory":2,"la1":30.2991,"la2":30.254,"lo1":-89.0895,"lo2":-89.0444,"dy":0.0017,"dx":0.0017,"nx":28,"ny":28,"refTime":"2025-03-31T21:00:00:Z","depth":"0","parameterNumber":2,"parameterNumberName":"U-component_of_CURRENTS"},"data":[0,0,0,0,0,0,0,0,0,0,0,0,0,0,0,0,0,0,0,0,0,0,0,0,0,0,0,0,0,0,0,0,0,0,0,0,0,0,0,0,0,0,0,0,0,0,0,0,0,0,0,0,0,0,0,0,0,0,0.3926,0.3927,0,0.3957,0.3957,0.3957,0.3897,0.3896,0.3894,0.3893,0.3902,0.3903,0.3904,0,0,0,0,0,0,0,0,0,0,0,0,0,0.3838,0.3839,0.3926,0.3927,0.3928,0.3957,0.3957,0.3957,0.3897,0.3896,0.3894,0.3893,0.3901,0.3903,0.3905,0,0,0,0,0,0,0,0,0,0,0,0,0,0.3866,0.384,0.3926,0.3908,0.3907,0.3958,0.3957,0.3957,0.3897,0.3896,0.3894,0.3892,0.3901,0.3903,0.3905,0.3954,0,0,0.3911,0.3912,0,0,0,0,0,0,0,0,0.3864,0.3868,0.3909,0.3909,0.3909,0.3929,0.393,0.3958,0.3898,0.3892,0.3893,0.3891,0.3916,0.3916,0.3915,0.3954,0.3955,0.3911,0.3913,0.3913,0.3914,0,0,0,0,0,0,0,0.3862,0.3867,0.393,0.3911,0.3911,0.3908,0.3908,0.3934,0.3907,0.3893,0.3891,0.3908,0.3914,0.3913,0.3915,0.3955,0.3911,0.3913,0.3914,0.3915,0.4071,0.4074,0,0,0,0,0,0,0.3876,0.3865,0.3929,0.3932,0.3891,0.3911,0.3912,0.3917,0.3907,0.3906,0.391,0.3905,0.391,0.3912,0.3915,0.401,0.3913,0.3915,0.3916,0.4068,0.4072,0.4075,0,0,0,0,0,0,0.3874,0.3881,0.3928,0.3906,0.3913,0.3915,0.3922,0.3919,0.3924,0.3922,0.3918,0.3918,0.3909,0.3912,0.3955,0.4008,0.3916,0.3918,0.4065,0.4069,0.4073,0.4177,0,0,0,0,0,0,0.3871,0.388,0.3895,0.3907,0.3915,0.3973,0.3925,0.3921,0.3941,0.3935,0.3929,0.3927,0.3908,0.3953,0.3957,0.401,0.392,0.4061,0.4067,0.4072,0.417,0.4185,0.4197,0,0,0,0,0,0.3868,0.3892,0.3895,0.3904,0.3932,0.3975,0.3979,0.3968,0.3944,0.3961,0.3958,0.3927,0.399,0.3957,0.3962,0.4016,0.4058,0.4065,0.4071,0.4164,0.4182,0.4197,0,0,0,0,0,0,0.3859,0.389,0.3892,0.3924,0.3958,0.3968,0.399,0.3984,0.3994,0.3988,0.3965,0.3966,0.4027,0.4013,0.3976,0.4079,0.402,0.4028,0.4089,0.4106,0.4119,0.4107,0.3921,0,0,0,0,0,0.3871,0.3897,0.3928,0.396,0.3977,0.3987,0.4005,0.4004,0.4018,0.4018,0.4013,0.4023,0.4061,0.4073,0.4096,0.4153,0.4159,0.4192,0.4205,0.4216,0.4212,0.4294,0.4314,0.4096,0.4096,0.4096,0,0,0.3879,0.3902,0.3917,0.3962,0.3981,0.4018,0.3991,0.4031,0.4062,0.4023,0.4057,0.4075,0.4089,0.4152,0.4177,0.4142,0.4285,0.4225,0.4234,0.4223,0.4303,0.4324,0.4343,0.4101,0.41,0.4099,0,0,0.3904,0.3929,0.3954,0.3989,0.4038,0.4056,0.4074,0.4097,0.4105,0.4158,0.4144,0.4192,0.4229,0.4253,0.4271,0.4378,0.436,0.4389,0.4441,0.4522,0.454,0.4556,0.46,0.462,0.4388,0.4389,0.4389,0,0.3912,0.3945,0.3973,0.4009,0.4042,0.4075,0.411,0.4144,0.4178,0.4198,0.4183,0.4271,0.4281,0.437,0.4401,0.4409,0.4436,0.4376,0.4539,0.4555,0.4569,0.4611,0.4631,0.4394,0.4394,0.4393,0.4393,0,0.3952,0.3984,0.4009,0.4062,0.4104,0.415,0.4202,0.4243,0.4264,0.429,0.4378,0.4408,0.4451,0.4481,0.447,0.4586,0.4567,0.4553,0.4494,0.4598,0.4635,0.4654,0.4403,0.4401,0.4399,0.4397,0,0,0.3937,0.4017,0.4024,0.405,0.4133,0.4168,0.4247,0.4318,0.437,0.4423,0.4491,0.457,0.4579,0.4601,0.4615,0.4682,0.4813,0.4659,0.4661,0.4696,0.4977,0.4892,0.4903,0.4833,0.4837,0.484,0.4964,0,0.3954,0.4012,0.4059,0.4126,0.4156,0.4225,0.4296,0.437,0.4436,0.4516,0.458,0.4655,0.4631,0.4669,0.4737,0.4801,0.4865,0.4779,0.4876,0.4878,0.4785,0.4923,0.4812,0.4907,0.4982,0.4985,0.4987,0,0.396,0.4,0.4055,0.4142,0.4165,0.4217,0.4331,0.4404,0.4534,0.4591,0.4681,0.4728,0.4841,0.4807,0.4962,0.491,0.4946,0.4986,0.4992,0.4883,0.4828,0.4816,0.4938,0.4854,0.5015,0.5013,0.5011,0,0.3907,0.3993,0.4034,0.4065,0.4177,0.4216,0.4284,0.4409,0.4482,0.4641,0.4722,0.4842,0.4924,0.5005,0.5072,0.5035,0.5235,0.5192,0.5148,0.5141,0.5047,0.5025,0.5088,0.5303,0.5303,0.5303,0.5302,0,0.3897,0.3927,0.4008,0.4032,0.4091,0.4179,0.4269,0.4366,0.451,0.4617,0.4747,0.4856,0.4983,0.5098,0.5132,0.5204,0.5286,0.5183,0.5185,0.5079,0.506,0.4977,0.493,0.5307,0.5306,0.5305,0.5304,0,0.3839,0.3893,0.3938,0.4037,0.4064,0.4105,0.4236,0.4309,0.4471,0.4623,0.4681,0.4893,0.5051,0.5156,0.5305,0.5281,0.523,0.535,0.5197,0.5177,0.5004,0.4965,0.4813,0.4663,0.5319,0.5318,0.5317,0,0.3821,0.3834,0.3917,0.3934,0.3976,0.4047,0.4102,0.4261,0.4351,0.4635,0.4705,0.4918,0.5051,0.5241,0.5274,0.5342,0.5198,0.5235,0.5131,0.5003,0.4965,0.4755,0.4623,0.506,0.5057,0.5055,0.5053,0,0.3776,0.3801,0.3836,0.387,0.3911,0.3967,0.406,0.4123,0.4339,0.4476,0.4667,0.48,0.5038,0.5072,0.5178,0.5197,0.5011,0.5181,0.512,0.4827,0.4536,0.4389,0.4947,0.5031,0.5034,0.5035,0.5036,0.5037,0.3727,0.3733,0.3768,0.3793,0.383,0.3864,0.3869,0.3991,0.41,0.4262,0.4487,0.4619,0.4855,0.4994,0.4981,0.4925,0.4846,0.4819,0.4805,0.4618,0.4395,0.4876,0.4909,0.491,0.4911,0.4912,0.4913,0,0.364,0.3659,0.3687,0.3694,0.3676,0.3742,0.3816,0.3792,0.3846,0.4042,0.4159,0.4376,0.4496,0.4652,0.4757,0.4615,0.4389,0.4499,0.4225,0.4128,0.466,0.4572,0.4446,0.4446,0.4447,0.4447,0.4447,0.4447,0.3596,0.3574,0.359,0.3523,0.3526,0.3453,0.3457,0.3446,0.3528,0.3591,0.3689,0.385,0.4292,0.4594,0.4562,0.4442,0.4103,0.3935,0.3862,0.4327,0.4356,0.4383,0.4291,0.4109,0.4109,0.3185,0.3179,0.3174]},{"header":{"parameterUnit":"m.s-1","parameterCategory":2,"la1":30.2991,"la2":30.254,"lo1":-89.0895,"lo2":-89.0444,"dy":0.0017,"dx":0.0017,"nx":28,"ny":28,"refTime":"2025-03-31T21:00:00:Z","depth":"0","parameterNumber":3,"parameterNumberName":"V-component_of_CURRENTS"},"data":[0,0,0,0,0,0,0,0,0,0,0,0,0,0,0,0,0,0,0,0,0,0,0,0,0,0,0,0,0,0,0,0,0,0,0,0,0,0,0,0,0,0,0,0,0,0,0,0,0,0,0,0,0,0,0,0,0,0,-0.0127,-0.0128,0,-0.0203,-0.0204,-0.0205,-0.0243,-0.0243,-0.0243,-0.0243,-0.0372,-0.0375,-0.0379,0,0,0,0,0,0,0,0,0,0,0,0,0,-0.0077,-0.0077,-0.0127,-0.0128,-0.0129,-0.0203,-0.0204,-0.0205,-0.0243,-0.0243,-0.0243,-0.0243,-0.0371,-0.0375,-0.0379,0,0,0,0,0,0,0,0,0,0,0,0,0,-0.0119,-0.0077,-0.0127,-0.0158,-0.0161,-0.0203,-0.0204,-0.0205,-0.0243,-0.0243,-0.0243,-0.0243,-0.037,-0.0375,-0.038,-0.0407,0,0,-0.0395,-0.0397,0,0,0,0,0,0,0,0,-0.0116,-0.0121,-0.0152,-0.0156,-0.016,-0.0215,-0.0234,-0.0276,-0.0243,-0.021,-0.0243,-0.0243,-0.0325,-0.0334,-0.0345,-0.0413,-0.0419,-0.0395,-0.0398,-0.0401,-0.0402,0,0,0,0,0,0,0,-0.0113,-0.0118,-0.0156,-0.0153,-0.0158,-0.0189,-0.0195,-0.0242,-0.0266,-0.0213,-0.0217,-0.0227,-0.0327,-0.034,-0.0349,-0.0421,-0.0395,-0.04,-0.0403,-0.0405,-0.0515,-0.0515,0,0,0,0,0,0,-0.0103,-0.0115,-0.0154,-0.0158,-0.0139,-0.019,-0.0196,-0.0196,-0.0264,-0.0275,-0.0227,-0.0228,-0.0332,-0.0343,-0.0354,-0.0374,-0.0401,-0.0405,-0.0408,-0.0515,-0.0515,-0.0515,0,0,0,0,0,0,-0.0101,-0.0105,-0.0151,-0.014,-0.0148,-0.019,-0.019,-0.0197,-0.0208,-0.0274,-0.0285,-0.023,-0.0332,-0.0347,-0.0391,-0.038,-0.0407,-0.0412,-0.0515,-0.0515,-0.0515,-0.0425,0,0,0,0,0,0,-0.0099,-0.0104,-0.0101,-0.0139,-0.0148,-0.0163,-0.019,-0.0199,-0.0215,-0.0218,-0.0281,-0.0293,-0.0333,-0.0384,-0.0396,-0.0387,-0.0416,-0.0515,-0.0515,-0.0515,-0.0428,-0.0422,-0.0417,0,0,0,0,0,-0.0097,-0.0085,-0.01,-0.0105,-0.0142,-0.0163,-0.017,-0.0201,-0.0215,-0.0212,-0.0259,-0.0291,-0.0392,-0.0388,-0.0403,-0.0395,-0.0515,-0.0515,-0.0515,-0.0431,-0.0423,-0.0417,0,0,0,0,0,0,-0.0062,-0.0089,-0.0106,-0.0103,-0.0128,-0.0169,-0.0172,-0.0195,-0.0229,-0.0233,-0.0295,-0.031,-0.0346,-0.0385,-0.0379,-0.0427,-0.0457,-0.046,-0.0388,-0.0382,-0.0376,-0.0334,-0.042,0,0,0,0,0,-0.0053,-0.0052,-0.0086,-0.0085,-0.0092,-0.0132,-0.0145,-0.0164,-0.0201,-0.0216,-0.0261,-0.0312,-0.0357,-0.038,-0.0427,-0.0454,-0.0469,-0.0459,-0.0453,-0.0448,-0.0425,-0.0445,-0.0437,-0.0514,-0.0514,-0.0514,0,0,-0.0043,-0.0057,-0.0058,-0.0078,-0.0099,-0.0092,-0.0139,-0.015,-0.0146,-0.0226,-0.0238,-0.0297,-0.0362,-0.0391,-0.0409,-0.0421,-0.0433,-0.0447,-0.0442,-0.0422,-0.0443,-0.0436,-0.0429,-0.0514,-0.0514,-0.0514,0,0,-0.0005,-0.0029,-0.0006,-0.0019,-0.0042,-0.0065,-0.0064,-0.01,-0.0117,-0.0145,-0.0199,-0.0244,-0.0315,-0.035,-0.038,-0.0372,-0.0405,-0.0394,-0.0326,-0.0346,-0.0339,-0.0333,-0.033,-0.0325,-0.0386,-0.0386,-0.0386,0,0.001,0.0036,-0.0005,0.0017,0.0018,-0.0045,-0.0014,-0.0043,-0.0091,-0.0096,-0.0136,-0.0225,-0.0289,-0.0312,-0.0314,-0.0356,-0.0365,-0.0345,-0.0335,-0.033,-0.0325,-0.0324,-0.0319,-0.0382,-0.0382,-0.0383,-0.0383,0,0.0071,0.0089,0.0102,0.0112,0.0104,0.0116,0.0077,0.0065,0.0027,-0.0003,-0.004,-0.0131,-0.0176,-0.0214,-0.0266,-0.0266,-0.0281,-0.0327,-0.0344,-0.0311,-0.0313,-0.0309,-0.0375,-0.0377,-0.0378,-0.0379,0,0,0.0118,0.0143,0.015,0.0178,0.016,0.0166,0.0169,0.0163,0.0185,0.0105,0.013,0.0017,-0.0032,-0.0069,-0.0145,-0.0173,-0.0163,-0.0228,-0.0232,-0.0208,-0.0183,-0.0212,-0.0212,-0.0206,-0.0205,-0.0205,-0.0192,0,0.0184,0.0261,0.0246,0.0309,0.0347,0.0299,0.0314,0.0294,0.0263,0.0266,0.0164,0.014,0.0023,0.0003,-0.0044,-0.0126,-0.0151,-0.0161,-0.0233,-0.0234,-0.025,-0.0208,-0.0208,-0.0199,-0.0189,-0.0188,-0.0188,0,0.0258,0.0303,0.0386,0.0431,0.0442,0.0463,0.0491,0.0497,0.0471,0.0445,0.0397,0.0317,0.0258,0.015,0.0038,0.004,-0.0059,-0.0134,-0.0136,-0.0187,-0.0257,-0.0235,-0.0193,-0.0428,-0.0183,-0.0183,-0.0183,0,0.0335,0.0401,0.0476,0.0488,0.0522,0.0551,0.0567,0.056,0.0594,0.0569,0.0599,0.0487,0.0463,0.0319,0.014,0.0097,0.0032,-0.0049,-0.0165,-0.0168,-0.0193,-0.0199,-0.0371,-0.0122,-0.0122,-0.0122,-0.0122,0,0.042,0.0478,0.0521,0.0562,0.0655,0.0643,0.0735,0.0728,0.0758,0.0838,0.0704,0.0744,0.0504,0.0421,0.0229,0.0065,0.0098,-0.0128,-0.0163,-0.0163,-0.0166,-0.0394,-0.0544,-0.0122,-0.0122,-0.0122,-0.0122,0,0.0496,0.0521,0.061,0.0669,0.0695,0.0764,0.0853,0.0921,0.0932,0.1042,0.1043,0.096,0.0845,0.0607,0.0396,0.0207,-0.0111,-0.0048,-0.0022,-0.0054,-0.0405,-0.0549,-0.0751,-0.0859,-0.0164,-0.0165,-0.0165,0,0.0545,0.06,0.0693,0.0756,0.079,0.0889,0.0965,0.1001,0.109,0.1188,0.1259,0.1177,0.1159,0.0842,0.0457,0.014,-0.0114,-0.0071,-0.0177,-0.0403,-0.0589,-0.0702,-0.0787,-0.0168,-0.0168,-0.0169,-0.0169,0,0.0633,0.0659,0.0731,0.0865,0.0958,0.1076,0.1195,0.1295,0.1373,0.1488,0.1618,0.1621,0.1301,0.0973,0.0505,0.0254,-0.0258,-0.0091,-0.0335,-0.0607,-0.0729,-0.0855,-0.0189,-0.0173,-0.0172,-0.0172,-0.0172,-0.0172,0.0689,0.0758,0.0848,0.0979,0.1095,0.1252,0.1378,0.1526,0.1708,0.1902,0.1886,0.1962,0.1458,0.0809,0.0421,-0.0286,-0.0315,-0.0499,-0.0648,-0.0734,-0.0872,-0.0202,-0.0231,-0.0231,-0.0231,-0.0231,-0.0231,0,0.0759,0.0836,0.0959,0.1114,0.1261,0.1306,0.1524,0.167,0.192,0.21,0.2225,0.2056,0.1421,0.0755,-0.0196,-0.0722,-0.0931,-0.1016,-0.1189,-0.1245,-0.0646,-0.0681,-0.0796,-0.0796,-0.0796,-0.0795,-0.0795,-0.0795,0.0794,0.0916,0.0983,0.1224,0.1345,0.1556,0.1694,0.1919,0.21,0.2351,0.2435,0.2446,0.1975,0.0226,-0.0948,-0.1236,-0.164,-0.1741,-0.192,-0.1539,-0.1502,-0.1467,-0.1535,-0.1827,-0.1829,-0.2446,-0.2452,-0.2457]}],[{"header":{"parameterUnit":"m.s-1","parameterCategory":2,"la1":30.2991,"la2":30.254,"lo1":-89.0895,"lo2":-89.0444,"dy":0.0017,"dx":0.0017,"nx":28,"ny":28,"refTime":"2025-03-31T21:00:00:Z","depth":"2","parameterNumber":2,"parameterNumberName":"U-component_of_CURRENTS"},"data":[0,0,0,0,0,0,0,0,0,0,0,0,0,0,0,0,0,0,0,0,0,0,0,0,0,0,0,0,0,0,0,0,0,0,0,0,0,0,0,0,0,0,0,0,0,0,0,0,0,0,0,0,0,0,0,0,0,0,0.2912,0.2912,0,0.2957,0.2958,0.2958,0.2965,0.2965,0.2964,0.2964,0.3006,0.3007,0.3008,0,0,0,0,0,0,0,0,0,0,0,0,0,0.2815,0.2816,0.2912,0.2912,0.2913,0.2957,0.2958,0.2958,0.2965,0.2965,0.2964,0.2964,0.3006,0.3007,0.3008,0,0,0,0,0,0,0,0,0,0,0,0,0,0.2855,0.2817,0.2911,0.2924,0.2926,0.2957,0.2958,0.2958,0.2965,0.2965,0.2964,0.2964,0.3005,0.3007,0.3009,0.3023,0,0,0.3014,0.3015,0,0,0,0,0,0,0,0,0.2853,0.2858,0.2922,0.2924,0.2926,0.2958,0.2939,0.2981,0.2965,0.2947,0.2964,0.2964,0.2992,0.2995,0.2999,0.3025,0.3027,0.3014,0.3015,0.3016,0.3017,0,0,0,0,0,0,0,0.285,0.2856,0.2926,0.2923,0.2925,0.2923,0.2928,0.2947,0.2967,0.2948,0.295,0.296,0.2992,0.2997,0.3,0.3027,0.3014,0.3016,0.3017,0.3018,0.3181,0.3184,0,0,0,0,0,0,0.2852,0.2854,0.2925,0.2928,0.2892,0.2925,0.2931,0.2945,0.2967,0.2971,0.296,0.296,0.2994,0.2998,0.3002,0.3118,0.3016,0.3018,0.3019,0.3178,0.3182,0.3186,0,0,0,0,0,0,0.285,0.2858,0.2923,0.2894,0.2903,0.2928,0.2943,0.2946,0.2963,0.2977,0.298,0.2975,0.2994,0.2999,0.3042,0.3116,0.3019,0.302,0.3174,0.3179,0.3184,0.3288,0,0,0,0,0,0,0.2847,0.2857,0.2876,0.2895,0.2905,0.296,0.2944,0.2947,0.297,0.2971,0.299,0.2993,0.2994,0.304,0.3044,0.3117,0.3022,0.317,0.3177,0.3182,0.3281,0.3296,0.3309,0,0,0,0,0,0.2844,0.2876,0.2877,0.2886,0.2927,0.2962,0.2967,0.2981,0.2971,0.2991,0.3007,0.2993,0.3083,0.3043,0.3048,0.3122,0.3167,0.3175,0.3182,0.3274,0.3293,0.3309,0,0,0,0,0,0,0.2854,0.288,0.2881,0.2923,0.2947,0.2965,0.2996,0.2989,0.3015,0.3025,0.3018,0.3023,0.3099,0.3092,0.3048,0.3191,0.313,0.3139,0.3199,0.3217,0.3231,0.3204,0.3023,0,0,0,0,0,0.2862,0.2889,0.2911,0.2948,0.2966,0.2978,0.2996,0.3005,0.3027,0.3037,0.3056,0.3087,0.3132,0.3155,0.319,0.3251,0.3241,0.3309,0.3323,0.3335,0.3319,0.3383,0.3401,0.321,0.321,0.321,0,0,0.2872,0.2897,0.2909,0.2951,0.2975,0.3006,0.2989,0.3033,0.3066,0.304,0.3106,0.3136,0.3159,0.3242,0.3276,0.3244,0.3389,0.3345,0.3354,0.3331,0.3393,0.3411,0.3427,0.3215,0.3214,0.3213,0,0,0.2905,0.2936,0.2962,0.2988,0.3032,0.3048,0.3061,0.3096,0.3125,0.318,0.319,0.3248,0.3307,0.3346,0.3368,0.3477,0.3463,0.3513,0.3562,0.3627,0.3642,0.3655,0.3675,0.3689,0.352,0.352,0.352,0,0.2913,0.2952,0.2978,0.3013,0.3044,0.3066,0.3101,0.3138,0.3184,0.3221,0.3218,0.3334,0.3354,0.3449,0.3496,0.3509,0.3528,0.3493,0.3643,0.3656,0.3668,0.3684,0.3699,0.3526,0.3525,0.3524,0.3524,0,0.2948,0.299,0.302,0.3066,0.3105,0.3149,0.3198,0.3249,0.3286,0.3319,0.3427,0.3465,0.3529,0.3569,0.3561,0.3678,0.366,0.3654,0.3592,0.3693,0.3705,0.3718,0.3534,0.3532,0.353,0.3529,0,0,0.2933,0.302,0.3032,0.3059,0.3138,0.3166,0.3254,0.3329,0.3383,0.3456,0.3535,0.3628,0.3654,0.368,0.3707,0.3757,0.3864,0.3747,0.3747,0.3751,0.3989,0.3947,0.3956,0.3899,0.3901,0.3904,0.3965,0,0.295,0.3013,0.3064,0.3131,0.3167,0.3232,0.3307,0.3384,0.3459,0.3548,0.3619,0.3709,0.37,0.3752,0.3807,0.3854,0.3902,0.3845,0.3902,0.3902,0.3841,0.3972,0.369,0.372,0.3977,0.3979,0.3981,0,0.2955,0.3003,0.3066,0.3161,0.3186,0.3231,0.335,0.3418,0.3553,0.3629,0.3731,0.3787,0.3892,0.3866,0.3981,0.3954,0.3978,0.3995,0.3998,0.3922,0.3884,0.3661,0.3733,0.4002,0.4,0.3999,0.3997,0,0.2904,0.3003,0.3052,0.3081,0.3192,0.3242,0.3306,0.3437,0.3521,0.3682,0.3761,0.3887,0.397,0.4024,0.4072,0.4048,0.4175,0.4145,0.4118,0.4113,0.386,0.3829,0.4219,0.4219,0.4219,0.4219,0.4218,0,0.2888,0.2927,0.3028,0.3047,0.3122,0.321,0.3304,0.3404,0.3557,0.3658,0.3791,0.3895,0.4021,0.4107,0.4117,0.4166,0.4221,0.4141,0.4145,0.3892,0.3864,0.4087,0.4071,0.4221,0.422,0.422,0.422,0,0.2821,0.2887,0.2938,0.305,0.3094,0.3138,0.3292,0.3359,0.352,0.3658,0.3722,0.394,0.4067,0.4147,0.4255,0.4233,0.4269,0.4264,0.3943,0.3909,0.4141,0.413,0.4241,0.424,0.424,0.4239,0.4239,0,0.2787,0.2807,0.2916,0.295,0.3002,0.309,0.3159,0.333,0.3413,0.3666,0.3725,0.3929,0.4041,0.4189,0.4214,0.4242,0.4284,0.398,0.3883,0.416,0.4153,0.4142,0.4132,0.3581,0.3576,0.3571,0.3567,0,0.2721,0.276,0.2807,0.2879,0.2941,0.3009,0.3116,0.3178,0.3376,0.3498,0.3664,0.3778,0.3981,0.3935,0.4023,0.399,0.3955,0.3889,0.4284,0.3635,0.3549,0.3538,0.3548,0.3526,0.353,0.3533,0.3535,0.3537,0.2669,0.2676,0.2737,0.2795,0.286,0.2896,0.2898,0.3021,0.312,0.3263,0.3473,0.3546,0.3672,0.3679,0.3594,0.3548,0.3808,0.3631,0.3641,0.3657,0.3585,0.3505,0.3457,0.3461,0.3464,0.3467,0.3469,0,0.2579,0.2608,0.2653,0.2687,0.2686,0.2783,0.2845,0.2816,0.2849,0.3047,0.3161,0.3011,0.3044,0.3138,0.3033,0.3072,0.2991,0.2931,0.279,0.2838,0.2879,0.2761,0.2417,0.2413,0.2409,0.2405,0,0,0.2536,0.2525,0.2539,0.25,0.2533,0.2486,0.2483,0.2477,0.2558,0.2577,0.2625,0.2912,0.3075,0.2688,0.2681,0.2523,0.2637,0.243,0.3293,0.3177,0.3212,0.333,0.3212,0,0,0,0,0]},{"header":{"parameterUnit":"m.s-1","parameterCategory":2,"la1":30.2991,"la2":30.254,"lo1":-89.0895,"lo2":-89.0444,"dy":0.0017,"dx":0.0017,"nx":28,"ny":28,"refTime":"2025-03-31T21:00:00:Z","depth":"2","parameterNumber":3,"parameterNumberName":"V-component_of_CURRENTS"},"data":[0,0,0,0,0,0,0,0,0,0,0,0,0,0,0,0,0,0,0,0,0,0,0,0,0,0,0,0,0,0,0,0,0,0,0,0,0,0,0,0,0,0,0,0,0,0,0,0,0,0,0,0,0,0,0,0,0,0,0.0024,0.0023,0,-0.0056,-0.0057,-0.0058,-0.0117,-0.0118,-0.0118,-0.0118,-0.0235,-0.0237,-0.024,0,0,0,0,0,0,0,0,0,0,0,0,0,0.0057,0.0058,0.0024,0.0023,0.0022,-0.0056,-0.0057,-0.0058,-0.0117,-0.0118,-0.0118,-0.0119,-0.0234,-0.0237,-0.024,0,0,0,0,0,0,0,0,0,0,0,0,0,0.0016,0.0058,0.0024,-0.0016,-0.002,-0.0055,-0.0057,-0.0058,-0.0117,-0.0118,-0.0118,-0.0119,-0.0233,-0.0237,-0.0241,-0.0253,0,0,-0.0253,-0.0255,0,0,0,0,0,0,0,0,0.0018,0.0015,-0.0009,-0.0013,-0.0018,-0.0076,-0.0088,-0.0125,-0.0117,-0.0081,-0.0118,-0.0119,-0.0184,-0.0192,-0.0207,-0.0259,-0.0264,-0.0253,-0.0256,-0.0258,-0.0259,0,0,0,0,0,0,0,0.0021,0.0017,-0.0009,-0.001,-0.0015,-0.0053,-0.0059,-0.0095,-0.013,-0.0085,-0.0089,-0.0096,-0.0187,-0.0203,-0.021,-0.0266,-0.0253,-0.0257,-0.0259,-0.0261,-0.0342,-0.0342,0,0,0,0,0,0,0.0038,0.0021,-0.0006,-0.0011,0.0001,-0.0052,-0.0059,-0.0058,-0.0129,-0.0139,-0.0095,-0.0098,-0.0195,-0.0205,-0.0214,-0.0228,-0.0258,-0.0261,-0.0264,-0.0342,-0.0342,-0.0342,0,0,0,0,0,0,0.0039,0.0037,-0.0003,0.0003,-0.0004,-0.0052,-0.005,-0.0059,-0.0075,-0.0136,-0.0148,-0.0101,-0.0196,-0.0209,-0.0241,-0.0233,-0.0263,-0.0267,-0.0343,-0.0342,-0.0342,-0.0259,0,0,0,0,0,0,0.0041,0.0038,0.0043,0.0005,-0.0004,-0.0014,-0.0049,-0.006,-0.0077,-0.0082,-0.0145,-0.0156,-0.0198,-0.0234,-0.0245,-0.0239,-0.027,-0.0343,-0.0342,-0.0342,-0.0262,-0.0256,-0.025,0,0,0,0,0,0.0042,0.0059,0.0044,0.004,0.0006,-0.0013,-0.002,-0.0058,-0.0077,-0.0076,-0.012,-0.0155,-0.0239,-0.0237,-0.025,-0.0245,-0.0343,-0.0343,-0.0342,-0.0265,-0.0257,-0.0251,0,0,0,0,0,0,0.0075,0.0053,0.0036,0.0044,0.0021,-0.0022,-0.0026,-0.0051,-0.0085,-0.009,-0.015,-0.0164,-0.0192,-0.0228,-0.0225,-0.0268,-0.0297,-0.0299,-0.0234,-0.0228,-0.0222,-0.0189,-0.0274,0,0,0,0,0,0.0087,0.0091,0.0061,0.0066,0.0059,0.0018,0.0004,-0.0018,-0.0052,-0.0068,-0.0114,-0.0161,-0.0199,-0.0219,-0.026,-0.028,-0.031,-0.0286,-0.028,-0.0275,-0.0257,-0.0295,-0.029,-0.034,-0.034,-0.034,0,0,0.0099,0.0087,0.0088,0.0073,0.0051,0.0057,0.0008,-0.0002,0.0,-0.0075,-0.0091,-0.0143,-0.02,-0.0224,-0.0239,-0.0253,-0.0278,-0.0274,-0.0269,-0.0254,-0.0294,-0.0289,-0.0285,-0.0339,-0.0339,-0.0339,0,0,0.0136,0.0119,0.0139,0.0129,0.0108,0.0085,0.0087,0.0049,0.0029,0.0007,-0.0046,-0.0086,-0.0147,-0.0182,-0.0209,-0.0193,-0.0246,-0.0215,-0.0158,-0.0195,-0.019,-0.0187,-0.0219,-0.0219,-0.021,-0.021,-0.021,0,0.0152,0.0174,0.014,0.016,0.0161,0.0106,0.0132,0.0105,0.0059,0.0049,0.0015,-0.007,-0.0123,-0.0145,-0.0145,-0.0178,-0.0208,-0.0178,-0.0185,-0.0183,-0.0181,-0.0214,-0.0215,-0.0206,-0.0206,-0.0207,-0.0207,0,0.0208,0.0223,0.0235,0.0243,0.0239,0.025,0.0217,0.0204,0.0167,0.0135,0.0098,0.0021,-0.0025,-0.0056,-0.0098,-0.011,-0.0139,-0.0173,-0.0197,-0.017,-0.0208,-0.021,-0.02,-0.0202,-0.0203,-0.0204,0,0,0.0252,0.0273,0.0277,0.0301,0.0287,0.0294,0.0297,0.0286,0.0297,0.0228,0.0233,0.0147,0.0099,0.0066,0.0001,-0.0037,-0.0059,-0.0093,-0.0097,-0.0113,-0.0138,-0.0167,-0.0174,-0.0098,-0.0098,-0.0098,-0.0169,0,0.0307,0.0371,0.036,0.0414,0.0445,0.0406,0.0416,0.0396,0.0363,0.035,0.0263,0.0235,0.0147,0.0126,0.0074,-0.0023,-0.0062,-0.0036,-0.0171,-0.0174,-0.0195,-0.0177,-0.0153,-0.0215,-0.0172,-0.0173,-0.0173,0,0.0368,0.0405,0.0472,0.0511,0.052,0.0538,0.0553,0.0557,0.0519,0.0493,0.0444,0.0371,0.0305,0.0226,0.0082,0.0101,-0.0004,-0.0087,-0.0092,-0.0146,-0.0208,-0.0237,-0.0222,-0.0178,-0.0178,-0.0177,-0.0177,0,0.0426,0.0483,0.0543,0.0556,0.0585,0.0605,0.0615,0.0598,0.0625,0.0587,0.0595,0.049,0.0455,0.0306,0.0122,0.0103,-0.0037,-0.0086,-0.0209,-0.0213,-0.0231,-0.0236,-0.0178,-0.0178,-0.0178,-0.0177,-0.0177,0,0.0492,0.054,0.0576,0.0609,0.0684,0.0674,0.0742,0.0733,0.0746,0.08,0.0675,0.0689,0.0473,0.0358,0.0173,-0.0021,-0.0002,-0.0187,-0.023,-0.0203,-0.0204,-0.0204,-0.0206,-0.018,-0.018,-0.0179,-0.0179,0,0.0547,0.0567,0.0642,0.0691,0.0713,0.0766,0.0841,0.0894,0.0882,0.0952,0.0948,0.0851,0.0699,0.0467,0.0239,0.0065,-0.0134,-0.0209,-0.0161,-0.0196,-0.0298,-0.0295,-0.0346,-0.0348,-0.0349,-0.035,-0.0351,0,0.0585,0.0626,0.0709,0.0763,0.0789,0.0869,0.093,0.0959,0.1032,0.1058,0.1106,0.0984,0.0917,0.0556,0.0226,-0.0094,-0.0135,-0.0277,-0.0312,-0.0277,-0.0314,-0.0309,-0.0304,-0.0306,-0.0307,-0.0307,-0.0308,0,0.0653,0.0673,0.0738,0.0853,0.093,0.1035,0.1129,0.1212,0.1261,0.131,0.1354,0.1299,0.0962,0.0642,0.02,-0.0021,-0.0229,-0.0295,-0.0266,-0.0266,-0.0246,-0.0279,-0.0275,-0.0311,-0.0311,-0.031,-0.031,-0.031,0.0701,0.0759,0.084,0.0952,0.1051,0.1185,0.1285,0.1393,0.1515,0.1604,0.155,0.1479,0.111,0.0548,0.0149,-0.0263,-0.0244,-0.0382,-0.0379,-0.0375,-0.0356,-0.0339,-0.0419,-0.0419,-0.0419,-0.0419,-0.0419,0,0.0765,0.0831,0.0937,0.1071,0.1191,0.1236,0.141,0.151,0.1661,0.1734,0.1759,0.1423,0.1044,0.0616,0.0003,-0.0365,-0.0395,-0.0476,-0.0429,-0.0422,-0.0418,-0.04,-0.0475,-0.0476,-0.0477,-0.0478,0,0,0.0797,0.0907,0.0964,0.1164,0.1266,0.1439,0.1546,0.1683,0.1775,0.1843,0.1817,0.1722,0.1195,0.0752,0.0238,-0.0117,-0.0183,-0.0189,-0.0106,0.0016,0.0025,-0.0327,-0.0289,0,0,0,0,0]}],[{"header":{"parameterUnit":"m.s-1","parameterCategory":2,"la1":30.2991,"la2":30.254,"lo1":-89.0895,"lo2":-89.0444,"dy":0.0017,"dx":0.0017,"nx":28,"ny":28,"refTime":"2025-03-31T21:00:00:Z","depth":"4","parameterNumber":2,"parameterNumberName":"U-component_of_CURRENTS"},"data":[0,0,0,0,0,0,0,0,0,0,0,0,0,0,0,0,0,0,0,0,0,0,0,0,0,0,0,0,0,0,0,0,0,0,0,0,0,0,0,0,0,0,0,0,0,0,0,0,0,0,0,0,0,0,0,0,0,0,0.179,0.1791,0,0.1893,0.1895,0.1896,0.1971,0.1972,0.1972,0.1973,0.2066,0.2067,0.2069,0,0,0,0,0,0,0,0,0,0,0,0,0,0.167,0.1671,0.179,0.1791,0.1793,0.1893,0.1895,0.1896,0.1971,0.1972,0.1973,0.1973,0.2065,0.2067,0.2069,0,0,0,0,0,0,0,0,0,0,0,0,0,0.1741,0.1672,0.179,0.1843,0.1849,0.1893,0.1895,0.1896,0.1971,0.1972,0.1973,0.1974,0.2064,0.2067,0.207,0.2063,0,0,0.2078,0.2079,0,0,0,0,0,0,0,0,0.1737,0.1745,0.1834,0.184,0.1847,0.1922,0.1886,0.1952,0.197,0.1923,0.1973,0.1974,0.2017,0.2023,0.2038,0.2067,0.2071,0.2078,0.2079,0.208,0.2081,0,0,0,0,0,0,0,0.1732,0.1741,0.183,0.1836,0.1843,0.1867,0.1878,0.1899,0.1961,0.1927,0.1933,0.1947,0.202,0.2035,0.2041,0.2072,0.2078,0.208,0.2082,0.2083,0.219,0.2191,0,0,0,0,0,0,0.172,0.1736,0.1826,0.1833,0.1795,0.1868,0.188,0.1895,0.1961,0.1973,0.1946,0.195,0.203,0.2038,0.2044,0.2148,0.208,0.2083,0.2084,0.2188,0.219,0.2191,0,0,0,0,0,0,0.1717,0.1727,0.1822,0.1788,0.1802,0.1869,0.1885,0.1897,0.1956,0.1975,0.1987,0.1997,0.2032,0.2041,0.2094,0.2148,0.2084,0.2086,0.2187,0.2189,0.2191,0.2285,0,0,0,0,0,0,0.1713,0.1725,0.175,0.1787,0.1804,0.1874,0.1884,0.1898,0.196,0.1968,0.2022,0.203,0.2033,0.209,0.2097,0.215,0.2089,0.2185,0.2188,0.219,0.228,0.229,0.2298,0,0,0,0,0,0.1708,0.1728,0.1751,0.1763,0.183,0.1875,0.1887,0.1936,0.1962,0.1993,0.2027,0.2031,0.211,0.2093,0.2101,0.2156,0.2184,0.2187,0.219,0.2276,0.2288,0.2298,0,0,0,0,0,0,0.1685,0.1739,0.1764,0.18,0.1849,0.1889,0.1927,0.1959,0.2012,0.203,0.2047,0.2057,0.2127,0.2119,0.21,0.219,0.2147,0.2152,0.2211,0.2222,0.2231,0.2221,0.2091,0,0,0,0,0,0.1691,0.173,0.1777,0.1813,0.1838,0.1892,0.1925,0.196,0.2002,0.203,0.2068,0.2101,0.2136,0.2162,0.2187,0.2234,0.224,0.2272,0.2281,0.2289,0.2284,0.2336,0.235,0.2201,0.2201,0.2201,0,0,0.1693,0.173,0.1753,0.1813,0.1856,0.1898,0.1916,0.1977,0.2022,0.2028,0.211,0.2141,0.2156,0.2215,0.2245,0.2221,0.2339,0.2293,0.23,0.229,0.2341,0.2355,0.2368,0.2203,0.2202,0.2202,0,0,0.1708,0.1751,0.1789,0.183,0.1902,0.1931,0.1957,0.2023,0.2068,0.2133,0.2157,0.2214,0.2266,0.2292,0.2307,0.2375,0.2387,0.2394,0.2435,0.2487,0.25,0.2512,0.2562,0.2577,0.2396,0.2396,0.2396,0,0.1714,0.1763,0.1807,0.1852,0.1891,0.1949,0.1994,0.2041,0.212,0.2158,0.217,0.2275,0.2297,0.2367,0.2395,0.2399,0.2429,0.2399,0.2501,0.2512,0.2522,0.2571,0.2586,0.2401,0.2401,0.24,0.24,0,0.1742,0.1801,0.1827,0.1903,0.1948,0.1999,0.206,0.2123,0.218,0.2224,0.2322,0.2358,0.2419,0.2444,0.2443,0.2534,0.2534,0.2513,0.2478,0.2543,0.259,0.2604,0.2408,0.2406,0.2405,0.2404,0,0,0.171,0.1826,0.1842,0.189,0.1982,0.2018,0.2098,0.2177,0.2241,0.2319,0.2402,0.2471,0.251,0.2527,0.2554,0.2596,0.2707,0.2593,0.2593,0.2649,0.2838,0.2677,0.2677,0.2717,0.2719,0.2721,0.2851,0,0.1728,0.1813,0.1869,0.1957,0.2003,0.2079,0.2146,0.2228,0.2302,0.2394,0.2454,0.2545,0.2537,0.2596,0.2638,0.2698,0.2746,0.2674,0.2758,0.276,0.2615,0.2688,0.2729,0.2862,0.2865,0.2867,0.2869,0,0.1732,0.1795,0.188,0.1994,0.2022,0.2084,0.2201,0.2271,0.2396,0.246,0.2553,0.2613,0.2718,0.2692,0.2818,0.2782,0.2817,0.2843,0.2848,0.2667,0.2624,0.2775,0.2895,0.2893,0.2891,0.2889,0.2887,0,0.1675,0.18,0.187,0.1908,0.204,0.2102,0.2177,0.2298,0.2374,0.2521,0.26,0.271,0.2802,0.2858,0.2927,0.2897,0.3046,0.3006,0.2889,0.2879,0.2945,0.2931,0.3079,0.3078,0.3078,0.3078,0.3077,0,0.1649,0.1714,0.1858,0.1895,0.1989,0.2088,0.2197,0.2286,0.2431,0.2518,0.2641,0.2726,0.2852,0.2948,0.2975,0.2982,0.3093,0.2905,0.29,0.2984,0.2972,0.2957,0.2941,0.3083,0.3082,0.3081,0.308,0,0.1575,0.1672,0.176,0.1911,0.1967,0.2032,0.2208,0.2276,0.2431,0.2553,0.2616,0.279,0.291,0.3007,0.3119,0.3038,0.3063,0.3034,0.3145,0.3143,0.2851,0.2839,0.291,0.2906,0.2902,0.2898,0.2896,0,0.1542,0.1581,0.175,0.1804,0.1883,0.2005,0.2083,0.2257,0.2327,0.2561,0.2601,0.2796,0.2887,0.2922,0.3026,0.3075,0.3033,0.3023,0.2895,0.2845,0.2835,0.2829,0.2822,0.2889,0.2888,0.2887,0.2886,0,0.1467,0.1542,0.1611,0.1726,0.1821,0.1912,0.2039,0.2086,0.2274,0.2445,0.2538,0.2616,0.2744,0.2823,0.2891,0.2909,0.3012,0.298,0.2987,0.2867,0.2821,0.2813,0.2811,0.2873,0.2875,0.2876,0.2877,0,0.141,0.1429,0.1528,0.1622,0.1731,0.1781,0.1868,0.1962,0.2064,0.2315,0.2345,0.2542,0.2715,0.274,0.28,0.2814,0.276,0.2648,0.2671,0.2687,0.2552,0.2456,0.2401,0,0,0,0,0,0.1335,0.1345,0.1415,0.1498,0.1604,0.1671,0.1817,0.1905,0.2098,0.2105,0.222,0.2327,0.2429,0.2536,0.2507,0.2703,0.2768,0.2656,0.2649,0.2797,0.2813,0.2672,0,0,0,0,0,0,0.1278,0.133,0.1364,0.1386,0.1422,0.1513,0.16,0.1729,0.1746,0.1953,0.2026,0.2185,0.2323,0.2425,0.2462,0.2495,0.2442,0.2786,0.278,0.2788,0.2802,0.2815,0.2676,0,0,0,0,0]},{"header":{"parameterUnit":"m.s-1","parameterCategory":2,"la1":30.2991,"la2":30.254,"lo1":-89.0895,"lo2":-89.0444,"dy":0.0017,"dx":0.0017,"nx":28,"ny":28,"refTime":"2025-03-31T21:00:00:Z","depth":"4","parameterNumber":3,"parameterNumberName":"V-component_of_CURRENTS"},"data":[0,0,0,0,0,0,0,0,0,0,0,0,0,0,0,0,0,0,0,0,0,0,0,0,0,0,0,0,0,0,0,0,0,0,0,0,0,0,0,0,0,0,0,0,0,0,0,0,0,0,0,0,0,0,0,0,0,0,0.0098,0.0098,0,0.0037,0.0036,0.0036,-0.0014,-0.0015,-0.0015,-0.0016,-0.0099,-0.0101,-0.0103,0,0,0,0,0,0,0,0,0,0,0,0,0,0.0116,0.0116,0.0098,0.0098,0.0097,0.0037,0.0036,0.0035,-0.0014,-0.0015,-0.0015,-0.0016,-0.0098,-0.0101,-0.0103,0,0,0,0,0,0,0,0,0,0,0,0,0,0.0086,0.0116,0.0098,0.0066,0.0062,0.0038,0.0036,0.0035,-0.0014,-0.0015,-0.0015,-0.0016,-0.0098,-0.01,-0.0103,-0.0108,0,0,-0.0111,-0.0113,0,0,0,0,0,0,0,0,0.0088,0.0085,0.0071,0.0068,0.0064,0.0019,0.0012,-0.0013,-0.0014,0.0014,-0.0016,-0.0016,-0.006,-0.0066,-0.0078,-0.0112,-0.0115,-0.0112,-0.0113,-0.0115,-0.0115,0,0,0,0,0,0,0,0.009,0.0087,0.0073,0.0071,0.0066,0.0035,0.0031,0.0007,-0.002,0.0011,0.0008,0.0003,-0.0063,-0.0075,-0.008,-0.0116,-0.0112,-0.0114,-0.0116,-0.0117,-0.0149,-0.0148,0,0,0,0,0,0,0.0103,0.009,0.0075,0.0071,0.0076,0.0036,0.003,0.0034,-0.002,-0.0028,0.0004,0.0001,-0.007,-0.0077,-0.0083,-0.0081,-0.0115,-0.0117,-0.0119,-0.015,-0.0149,-0.0148,0,0,0,0,0,0,0.0104,0.0103,0.0077,0.0079,0.0074,0.0037,0.004,0.0033,0.002,-0.0025,-0.0034,-0.0001,-0.0071,-0.0079,-0.0097,-0.0085,-0.0118,-0.0121,-0.0151,-0.015,-0.0149,-0.0083,0,0,0,0,0,0,0.0105,0.0104,0.0111,0.0081,0.0074,0.0071,0.004,0.0032,0.0019,0.0015,-0.0032,-0.004,-0.0072,-0.0093,-0.01,-0.0089,-0.0123,-0.0152,-0.015,-0.0149,-0.0086,-0.008,-0.0074,0,0,0,0,0,0.0106,0.0124,0.0112,0.011,0.0085,0.0072,0.0066,0.0036,0.002,0.0021,-0.001,-0.0039,-0.0088,-0.0094,-0.0103,-0.0093,-0.0153,-0.0151,-0.0149,-0.0089,-0.0081,-0.0074,0,0,0,0,0,0,0.0136,0.0119,0.0106,0.0117,0.0098,0.0064,0.0064,0.0042,0.0018,0.0015,-0.0031,-0.0041,-0.0054,-0.0079,-0.0084,-0.0096,-0.0124,-0.0124,-0.0075,-0.0068,-0.0062,-0.0052,-0.0125,0,0,0,0,0,0.0146,0.0153,0.0129,0.0137,0.0132,0.0098,0.0089,0.007,0.0045,0.0033,0.0,-0.003,-0.0052,-0.0064,-0.009,-0.0096,-0.0134,-0.0093,-0.0087,-0.0082,-0.0079,-0.0124,-0.0122,-0.0142,-0.0142,-0.0142,0,0,0.0158,0.0151,0.0154,0.0144,0.0126,0.013,0.0091,0.0085,0.0086,0.0029,0.0021,-0.0012,-0.0049,-0.0057,-0.0064,-0.0077,-0.0096,-0.008,-0.0075,-0.0075,-0.0122,-0.012,-0.0118,-0.0141,-0.0141,-0.0141,0,0,0.0189,0.0182,0.0197,0.0189,0.0173,0.0156,0.0158,0.0129,0.0115,0.0103,0.0064,0.004,0.0006,-0.0019,-0.0035,-0.001,-0.0064,-0.0016,0.0023,-0.002,-0.0019,-0.0019,-0.0065,-0.0069,-0.0011,-0.0011,-0.001,0,0.0203,0.022,0.0199,0.0211,0.0212,0.0173,0.019,0.0173,0.0141,0.0133,0.0112,0.0057,0.0024,0.0012,0.0021,0.0003,-0.0033,-0.0001,-0.0013,-0.0013,-0.0014,-0.0062,-0.0067,-0.0007,-0.0008,-0.0008,-0.0008,0,0.0241,0.0255,0.0265,0.027,0.0269,0.0278,0.0257,0.025,0.0226,0.0202,0.0179,0.013,0.0098,0.0085,0.006,0.0046,0.0018,-0.0002,-0.0032,-0.0008,-0.006,-0.0067,-0.0002,-0.0004,-0.0005,-0.0005,0,0,0.027,0.0289,0.0293,0.0309,0.0303,0.0309,0.0316,0.0309,0.0313,0.0271,0.0266,0.0221,0.0185,0.0165,0.0125,0.0088,0.0051,0.0047,0.0044,0.0001,-0.005,-0.0057,-0.0066,0.0026,0.0025,0.0025,-0.0085,0,0.0305,0.0348,0.0346,0.0386,0.0406,0.0385,0.0397,0.0385,0.0361,0.0347,0.0289,0.027,0.0219,0.0206,0.016,0.0078,0.0036,0.0082,-0.0066,-0.0071,-0.008,-0.0073,0.0022,-0.009,-0.0092,-0.0093,-0.0094,0,0.0339,0.0367,0.0415,0.0448,0.0456,0.0473,0.0486,0.0492,0.0461,0.044,0.0401,0.0352,0.0296,0.0251,0.0114,0.0145,0.0057,-0.0013,-0.0019,-0.0053,-0.009,-0.012,-0.0107,-0.0106,-0.0105,-0.0104,-0.0104,0,0.0369,0.0414,0.0458,0.0469,0.0498,0.0517,0.053,0.0519,0.0538,0.0499,0.05,0.0413,0.0377,0.0255,0.0112,0.0112,-0.0046,-0.0068,-0.016,-0.0162,-0.0153,-0.0153,-0.0163,-0.0163,-0.0163,-0.0162,-0.0162,0,0.0403,0.0439,0.0479,0.0503,0.0562,0.0562,0.0615,0.0605,0.0611,0.0637,0.0554,0.0545,0.0377,0.027,0.013,-0.0037,-0.0038,-0.0154,-0.0188,-0.0123,-0.0118,-0.0159,-0.0157,-0.0166,-0.0165,-0.0165,-0.0164,0,0.0427,0.0449,0.0506,0.0555,0.0578,0.0619,0.0687,0.0722,0.071,0.0739,0.0735,0.0642,0.0498,0.0321,0.0117,-0.0003,-0.0168,-0.0226,-0.0143,-0.0172,-0.0261,-0.0255,-0.034,-0.0341,-0.0342,-0.0343,-0.0343,0,0.0442,0.0473,0.0551,0.0595,0.0623,0.0691,0.0743,0.0767,0.0808,0.0799,0.0814,0.0699,0.0612,0.0324,0.0122,-0.0154,-0.0191,-0.0285,-0.0273,-0.0253,-0.0279,-0.0271,-0.0263,-0.0345,-0.0345,-0.0345,-0.0346,0,0.0472,0.0499,0.0551,0.0645,0.0712,0.0795,0.0867,0.0907,0.0931,0.0927,0.0887,0.074,0.0574,0.0339,0.0124,-0.0074,-0.0231,-0.0296,-0.0295,-0.0285,-0.0261,-0.0283,-0.0274,-0.0349,-0.0348,-0.0348,-0.0348,0,0.0497,0.0536,0.0606,0.0691,0.0782,0.0868,0.0907,0.0955,0.0994,0.0979,0.0962,0.078,0.0674,0.038,0.0181,-0.0016,-0.0068,-0.0137,-0.0146,-0.0145,-0.0059,0.0002,-0.0033,0,0,0,0,0,0.0517,0.0565,0.0647,0.0741,0.0836,0.0892,0.0978,0.1008,0.1033,0.102,0.0997,0.0845,0.0553,0.0425,0.023,0.0145,-0.0117,-0.0094,-0.0203,-0.0367,-0.0363,-0.0296,0,0,0,0,0,0,0.0528,0.0605,0.0648,0.0772,0.0845,0.0953,0.1011,0.103,0.1024,0.1015,0.087,0.079,0.0512,0.0672,0.0227,0.0165,0.0066,-0.023,-0.0235,-0.0369,-0.0366,-0.0362,-0.0292,0,0,0,0,0]}]]